"Pseudo-MPEC" for Leuben

Created 2022 Aug 15 11:22:07 UT using Find_Orb

Click here for an explanation of pseudo-MPECs

 
 Astrometry: 
     Leuben *KC2022 08 08.88824916 31 53.07 +51 58 26.6    ~899M 18.9 GXNEOCPC95
     Leuben  KC2022 08 08.89686316 31 55.03 +51 58 45.0    ~899M 18.5 GXNEOCPC95
     Leuben  KC2022 08 08.90449916 31 57.08 +51 59 01.0    ~899M 17.7 GXNEOCPC95
     Leuben  KC2022 08 09QWE4vOb?$5WAstrometry^LdDiTkLbC,redacted;g)O4Ule2l@F958
     Leuben  KC2022 08 09.vJ5Tclick`mherelfWjUe[\'YBnbqdPLWforp_I6+1,[[B6u5(b958
     Leuben  KC2022 08 09Fsqf.Smgu)mZs7PX:@KyaHi\7LD8E$explanation-IKuEAXlH8e958

Station data:
(958) Observatoire de Dax  (N43.693324 W1.030390)  France.  Observer P.
   Dupouy. 0.32-m Schmidt-Cassegrain.
(C95) SATINO Remote Observatory, Haute Provence  (N43.932040 E5.712390)
   France.  Observer J. Jahn. 0.60-m f/3.2 Newtonian reflector + CCD.

Orbital elements:  Leuben
   Perihelion 2022 Jul 29.51026 +/- 18.4 TT = 12:14:46 (JD 2459790.01026)
Epoch 2022 Aug  9.0 TT = JDT 2459800.5   Earth MOID: 0.0020   AutoNEOCP
M   9.91549292 +/- 17               (J2000 ecliptic)
n   0.94525657 +/- 0.0256           Peri.    6.91727 +/- 22
a   1.02825992 +/- 0.0186           Node   298.31106 +/- 5.3
e   0.0138611 +/- 0.0173            Incl.    9.52973 +/- 2.5
P   1.04/380.84d           H 22.3   G  0.15   U 10.3
q 1.01400703 +/- 0.000557    Q 1.04251281 +/- 0.0367
From 6 observations 2022 Aug. 8-9 (24.1 hr); mean residual 0".35
Residuals in arcseconds: 
220808 C95  .43+  .02-    220808 C95  .53+  .02-    220809 958  .10-  .17-    
220808 C95  .96-  .04+    220809 958  .10+  .00     220809 958  .00   .17+    

Ephemerides (geocentric):
Date (UTC) HH   RA             Dec           delta  r     elong  mag " sig PA
---- --------  ------------   ------------  ------ ------ -----  --- --------
2022 08 15 11  16 59 45.716   +55 12 54.14  .06850 1.0146  89.5 19.5  661  56
2022 08 15 12  16 59 54.269   +55 13 46.24  .06861 1.0146  89.5 19.5  668  56
2022 08 15 13  17 00 02.802   +55 14 38.13  .06872 1.0146  89.5 19.5  675  56
2022 08 15 14  17 00 11.314   +55 15 29.82  .06882 1.0146  89.6 19.5  682  56
2022 08 15 15  17 00 19.807   +55 16 21.31  .06893 1.0146  89.6 19.5  690  56
2022 08 15 16  17 00 28.280   +55 17 12.59  .06903 1.0146  89.6 19.5  697  56
2022 08 15 17  17 00 36.732   +55 18 03.68  .06914 1.0146  89.6 19.5  704  56
2022 08 15 18  17 00 45.165   +55 18 54.57  .06924 1.0146  89.6 19.5  711  56
2022 08 15 19  17 00 53.578   +55 19 45.26  .06935 1.0146  89.6 19.5  719  56
2022 08 15 20  17 01 01.972   +55 20 35.75  .06946 1.0146  89.6 19.5  726  56
2022 08 15 21  17 01 10.346   +55 21 26.05  .06956 1.0146  89.6 19.6  733  56
2022 08 15 22  17 01 18.700   +55 22 16.15  .06967 1.0146  89.6 19.6  741  56
2022 08 15 23  17 01 27.035   +55 23 06.06  .06977 1.0146  89.6 19.6  748  56
2022 08 16 00  17 01 35.350   +55 23 55.77  .06988 1.0146  89.6 19.6  756  56
2022 08 16 01  17 01 43.647   +55 24 45.29  .06998 1.0146  89.6 19.6  763  56
2022 08 16 02  17 01 51.924   +55 25 34.62  .07009 1.0146  89.6 19.6  770  56
2022 08 16 03  17 02 00.182   +55 26 23.76  .07019 1.0146  89.6 19.6  778  56
2022 08 16 04  17 02 08.420   +55 27 12.71  .07030 1.0146  89.6 19.6  785  56
2022 08 16 05  17 02 16.640   +55 28 01.47  .07041 1.0146  89.6 19.6  793  56
2022 08 16 06  17 02 24.841   +55 28 50.05  .07051 1.0146  89.6 19.6  800  56
2022 08 16 07  17 02 33.023   +55 29 38.43  .07062 1.0146  89.6 19.6  808  56
2022 08 16 08  17 02 41.187   +55 30 26.64  .07072 1.0146  89.6 19.6  815  56
2022 08 16 09  17 02 49.332   +55 31 14.65  .07083 1.0146  89.6 19.6  823  56
2022 08 16 10  17 02 57.458   +55 32 02.49  .07093 1.0146  89.6 19.6  830  56
2022 08 16 11  17 03 05.565   +55 32 50.13  .07104 1.0146  89.6 19.6  838  56
2022 08 16 12  17 03 13.655   +55 33 37.60  .07114 1.0146  89.6 19.6  845  56
2022 08 16 13  17 03 21.725   +55 34 24.89  .07125 1.0147  89.6 19.6  853  56
2022 08 16 14  17 03 29.778   +55 35 11.99  .07135 1.0147  89.6 19.6  861  56
2022 08 16 15  17 03 37.812   +55 35 58.92  .07146 1.0147  89.6 19.6  868  56
2022 08 16 16  17 03 45.829   +55 36 45.66  .07156 1.0147  89.6 19.6  876  56
2022 08 16 17  17 03 53.827   +55 37 32.23  .07167 1.0147  89.6 19.6  883  56
2022 08 16 18  17 04 01.807   +55 38 18.62  .07177 1.0147  89.6 19.6  891  57
2022 08 16 19  17 04 09.769   +55 39 04.84  .07188 1.0147  89.6 19.6  899  57
2022 08 16 20  17 04 17.714   +55 39 50.87  .07198 1.0147  89.6 19.6  906  57
2022 08 16 21  17 04 25.640   +55 40 36.74  .07209 1.0147  89.6 19.6  914  57
2022 08 16 22  17 04 33.549   +55 41 22.43  .07219 1.0147  89.7 19.6  922  57
2022 08 16 23  17 04 41.441   +55 42 07.95  .07230 1.0147  89.7 19.6  929  57
2022 08 17 00  17 04 49.314   +55 42 53.29  .07240 1.0147  89.7 19.6  937  57
2022 08 17 01  17 04 57.171   +55 43 38.46  .07251 1.0147  89.7 19.6  945  57
2022 08 17 02  17 05 05.010   +55 44 23.47  .07261 1.0147  89.7 19.6  953  57
2022 08 17 03  17 05 12.831   +55 45 08.30  .07272 1.0147  89.7 19.6  960  57
2022 08 17 04  17 05 20.635   +55 45 52.97  .07282 1.0147  89.7 19.6  968  57
2022 08 17 05  17 05 28.423   +55 46 37.46  .07293 1.0147  89.7 19.6  976  57
2022 08 17 06  17 05 36.193   +55 47 21.79  .07303 1.0147  89.7 19.6  984  57
2022 08 17 07  17 05 43.946   +55 48 05.95  .07314 1.0147  89.7 19.6  991  57
2022 08 17 08  17 05 51.681   +55 48 49.95  .07324 1.0147  89.7 19.7  999  57
2022 08 17 09  17 05 59.401   +55 49 33.78  .07335 1.0147  89.7 19.7 1007  57
2022 08 17 10  17 06 07.103   +55 50 17.45  .07345 1.0147  89.7 19.7 1015  57